This is the latest recevied weather packets stored in our database for station/object EA3FL-15. If no packets are shown the sender has not sent any weather packets the latest 10 day(s).
| Time | Temp. | Humidity | Pressure | Rain* | Wind** | Luminosity | Snow |
|---|---|---|---|---|---|---|---|
| 1777721995 | 20° C | 100% | 1025.7 hPa | - | - | - | - |
| 1777721095 | 20° C | 100% | 1025.6 hPa | - | - | - | - |
| 1777720195 | 20° C | 100% | 1025.8 hPa | - | - | - | - |
| 1777719295 | 20° C | 100% | 1026.1 hPa | - | - | - | - |
| 1777718395 | 20° C | 100% | 1026.1 hPa | - | - | - | - |
| 1777717496 | 20° C | 100% | 1026.1 hPa | - | - | - | - |
| 1777716594 | 20° C | 100% | 1026.1 hPa | - | - | - | - |
| 1777715694 | 20° C | 100% | 1026.1 hPa | - | - | - | - |
| 1777714795 | 19.44° C | 100% | 1026.5 hPa | - | - | - | - |
| 1777713894 | 18.89° C | 100% | 1026.6 hPa | - | - | - | - |
| 1777712993 | 18.33° C | 100% | 1026.5 hPa | - | - | - | - |
| 1777712093 | 18.33° C | 100% | 1026.6 hPa | - | - | - | - |
| 1777711193 | 18.89° C | 100% | 1026.6 hPa | - | - | - | - |
| 1777710295 | 18.33° C | 100% | 1026.5 hPa | - | - | - | - |
| 1777709393 | 18.33° C | 100% | 1026.5 hPa | - | - | - | - |
| 1777708493 | 18.33° C | 100% | 1026.5 hPa | - | - | - | - |
| 1777707593 | 17.78° C | 100% | 1026.5 hPa | - | - | - | - |
| 1777706693 | 18.33° C | 100% | 1026.5 hPa | - | - | - | - |
| 1777705793 | 18.33° C | 100% | 1026.6 hPa | - | - | - | - |
| 1777704892 | 18.89° C | 100% | 1026.5 hPa | - | - | - | - |
| 1777703992 | 18.33° C | 100% | 1026.4 hPa | - | - | - | - |
| 1777702192 | 17.78° C | 100% | 1026.3 hPa | - | - | - | - |
| 1777701292 | 17.78° C | 100% | 1026.4 hPa | - | - | - | - |
| 1777700392 | 17.22° C | 100% | 1026.3 hPa | - | - | - | - |
| 1777699492 | 17.22° C | 100% | 1026.1 hPa | - | - | - | - |
* Rain since midnight (hover to see other rain measurements)
** Current wind speed in m/s (hover to see current wind gust speed)